Lufkin, TX

10:57 PM CDT on June 25, 2017 (GMT -0500)
Angelina County

Weather History for KLFK - June, 2013

Change the Weather History Date:

Sunday, June 30, 2013

  Actual Average Record
Temperature  
Mean Temperature 81 °F 82 °F  
Max Temperature 95 °F 92 °F 104 °F (1917)
Min Temperature 66 °F 72 °F 59 °F (1985)
Degree Days  
Heating Degree Days 0 0  
Month to date heating degree days 0 0  
Since 1 June heating degree days 0 0  
Since 1 July heating degree days 1615 1917  
Cooling Degree Days 16 17  
Month to date cooling degree days 523 452  
Year to date cooling degree days 1037 921  
Since 1 June cooling degree days 523 452  
Growing Degree Days 30 (Base 50)    
Moisture  
Dew Point 59 °F    
Average Humidity 56    
Maximum Humidity 87    
Minimum Humidity 24    
Precipitation  
Precipitation 0.00 in 0.14 in 1.83 in (1989)
Month to date precipitation 5.57 4.68  
Year to date precipitation 21.00 24.20  
Snow  
Snow 0.00 in - - ()
Month to date snowfall 0.0  
Since 1 June snowfall 0.0  
Since 1 July snowfall 0.0  
Snow Depth 0.00 in    
Sea Level Pressure  
Sea Level Pressure 29.82 in    
Wind  
Wind Speed 5 mph (NNW)    
Max Wind Speed 16 mph    
Max Gust Speed 22 mph    
Visibility 10 miles    
Events      
T = Trace of Precipitation, MM = Missing Value Source: NWS Daily Summary

Daily Weather History Graph

Daily Weather History Graph

Search for Another Location

Airport or City:

Trip Planner

Search our weather history database for the weather conditions in past years. The results will help you decide how hot, cold, wet, or windy it might be!

Date:

Astronomy

Jun. 30, 2013 Rise Set
Actual Time 6:18 AM CDT 8:27 PM CDT
Civil Twilight 5:50 AM CDT 8:55 PM CDT
Nautical Twilight 5:16 AM CDT 9:28 PM CDT
Astronomical Twilight 4:39 AM CDT 10:05 PM CDT
Moon 12:58 AM CDT (6/30) 1:59 PM CDT (6/30)
Length of Visible Light 15h 04m
Length of Day
14h 08m
Last Quarter, 45% of the Moon is Illuminated
Jun 30
Last Quarter
Jul 8
New
Jul 15
First Quarter
Jul 22
Full
Jul 29
Last Quarter

Hourly Weather History & Observations

Time (CDT) Temp. Heat Index Dew Point Humidity Pressure Visibility Wind Dir Wind Speed Gust Speed Precip Events Conditions
12:53 AM 75.9 °F - 62.1 °F 62% 29.81 in 10.0 mi Calm Calm - N/A   Clear
1:53 AM 73.0 °F - 62.1 °F 68% 29.81 in 10.0 mi Calm Calm - N/A   Clear
2:53 AM 70.0 °F - 64.0 °F 81% 29.80 in 10.0 mi Calm Calm - N/A   Clear
3:53 AM 68.0 °F - 62.1 °F 81% 29.79 in 10.0 mi Calm Calm - N/A   Clear
4:53 AM 66.9 °F - 61.0 °F 81% 29.79 in 10.0 mi Calm Calm - N/A   Clear
5:53 AM 66.9 °F - 62.1 °F 84% 29.79 in 10.0 mi Calm Calm - N/A   Clear
6:53 AM 66.9 °F - 63.0 °F 87% 29.81 in 10.0 mi Calm Calm - N/A   Clear
7:53 AM 75.0 °F - 66.0 °F 73% 29.81 in 10.0 mi Calm Calm - N/A   Clear
8:53 AM 82.0 °F 83.4 °F 64.0 °F 54% 29.84 in 10.0 mi NNW 5.8 mph - N/A   Clear
9:53 AM 86.0 °F 86.8 °F 63.0 °F 46% 29.86 in 10.0 mi WNW 6.9 mph - N/A   Scattered Clouds
10:33 AM 87.8 °F 89.4 °F 64.4 °F 46% 29.87 in 10.0 mi NW 6.9 mph - N/A   Mostly Cloudy
10:53 AM 88.0 °F 89.3 °F 64.0 °F 45% 29.86 in 10.0 mi NNW 4.6 mph - N/A   Scattered Clouds
11:53 AM 91.0 °F 88.9 °F 55.0 °F 29% 29.85 in 10.0 mi NNW 6.9 mph 16.1 mph N/A   Clear
12:53 PM 93.0 °F 91.7 °F 57.0 °F 30% 29.84 in 10.0 mi NW 9.2 mph - N/A   Partly Cloudy
1:53 PM 93.9 °F 92.2 °F 55.9 °F 28% 29.82 in 10.0 mi NW 11.5 mph 21.9 mph N/A   Scattered Clouds
2:53 PM 93.9 °F 92.0 °F 55.0 °F 27% 29.81 in 10.0 mi NW 8.1 mph 17.3 mph N/A   Partly Cloudy
3:53 PM 95.0 °F 92.5 °F 53.1 °F 24% 29.80 in 10.0 mi NW 9.2 mph 18.4 mph N/A   Clear
4:53 PM 93.0 °F 91.4 °F 55.9 °F 29% 29.79 in 10.0 mi NNW 8.1 mph - N/A   Partly Cloudy
5:53 PM 93.0 °F 91.1 °F 55.0 °F 28% 29.79 in 10.0 mi North 9.2 mph - N/A   Clear
6:53 PM 90.0 °F 88.1 °F 55.9 °F 31% 29.79 in 10.0 mi NNW 6.9 mph - N/A   Clear
7:53 PM 87.1 °F 85.7 °F 55.9 °F 35% 29.80 in 10.0 mi North 5.8 mph - N/A   Clear
8:53 PM 82.0 °F 81.4 °F 55.0 °F 39% 29.82 in 10.0 mi North 3.5 mph - N/A   Clear
9:53 PM 78.1 °F - 55.9 °F 46% 29.83 in 10.0 mi NNE 3.5 mph - N/A   Clear
10:53 PM 77.0 °F - 55.9 °F 48% 29.85 in 10.0 mi NNE 4.6 mph - N/A   Clear
11:53 PM 75.9 °F - 57.0 °F 52% 29.87 in 10.0 mi North 3.5 mph - N/A   Clear